This demonstration page uses our WeatherBlox Daily Observations layout. Learn more.

Left ArrowRight Arrow

Hourly Observations for November 4, 2022

Temp ( °F °C ) Dew Point ( °F °C ) Humidity (%) Winds ( mph kmh ) Pressure ( in mb ) Visibility ( mi km ) Precip ( " mm )
12:53 am 00:53 Cloudy 69 20.6 63 17.2 81 81 S 21 33 29.75 1008 10 16 0.00 0.00
1:21 am 01:21 Cloudy 68 20 63 17.2 84 84 S 15 24 29.74 1007 9 14 0.00 0.00
1:42 am 01:42 Cloudy 67 19.4 63 17.2 87 87 S 18 30 29.74 1007 10 16 0.00 0.00
1:53 am 01:53 Cloudy 67 19.4 63 17.2 87 87 S 17 28 29.74 1007 10 16 0.00 0.00
2:53 am 02:53 Mostly Cloudy 67 19.4 63 17.2 87 87 S 20 31 29.72 1007 10 16 0.00 0.00
3:53 am 03:53 Mostly Cloudy 68 20 64 17.8 87 87 S 17 28 29.70 1006 10 16 0.00 0.00
4:38 am 04:38 Cloudy 68 20 64 17.8 87 87 S 15 24 29.70 1006 10 16 0.00 0.00
4:53 am 04:53 Cloudy 65 18.3 64 17.8 97 97 WNW 22 35 29.73 1007 10 16 0.00 0.00
5:01 am 05:01 Cloudy 51 10.6 44 6.7 77 77 NW 24 39 29.80 1009 10 16 0.00 0.00
5:08 am 05:08 Cloudy 49 9.4 41 5 74 74 N 18 30 29.78 1009 10 16 0.00 0.00
5:53 am 05:53 Cloudy with Light Rain 46 7.8 42 5.6 86 86 NNW 28 44 29.78 1008 7 11 0.01 0.25
6:53 am 06:53 Cloudy with Light Rain 45 7.2 42 5.6 90 90 NNE 14 22 29.76 1008 8 13 0.01 0.13
7:26 am 07:26 Cloudy with Light Rain 45 7.2 43 6.1 93 93 N 15 24 29.83 1010 10 16 0.02 0.51
7:35 am 07:35 Cloudy with Light Rain 45 7.2 42 5.6 90 90 N 16 26 29.84 1010 8 13 0.02 0.51
7:53 am 07:53 Cloudy with Light Rain 44 6.7 41 5 89 89 N 14 22 29.79 1009 9 14 0.05 1.27
8:11 am 08:11 Cloudy with Thunderstorms 43 6.1 40 4.4 89 89 N 17 28 29.81 1009 10 16 0.03 0.76
8:50 am 08:50 Cloudy with Strong Thunderstorms 39 4 37 3 93 93 N 28 44 29.87 1012 2 2 0.15 3.81
8:53 am 08:53 Cloudy with Strong Thunderstorms 40 4.4 38 3.3 93 93 N 24 39 29.79 1009 2 2 0.19 4.83
9:07 am 09:07 Cloudy with Strong Thunderstorms 39 3.9 38 3.3 96 96 N 16 26 29.85 1011 1 2 0.40 10.16
9:48 am 09:48 Cloudy with Thunderstorms 39 4 37 3 93 93 N 18 30 29.88 1012 2 3 0.75 19.05
9:53 am 09:53 Cloudy with Thunderstorms 39 3.9 38 3.3 96 96 N 14 22 29.84 1010 3 5 0.75 19.05
10:53 am 10:53 Cloudy with Thunderstorms 39 3.9 37 2.8 93 93 NNE 18 30 29.81 1009 2 3 0.19 4.83
10:58 am 10:58 Cloudy with Thunderstorms 39 3.9 37 2.8 93 93 N 20 31 29.84 1011 3 4 0.01 0.13
12:00 pm 12:00 Windy with Storms Likely 39 3.9 37 2.8 93 93 N 21 33 29.88 1012 4 6 0.04 1.02
12:49 pm 12:49 Cloudy with Thunderstorms 39 4 37 3 93 93 N 18 30 29.87 1012 3 4 0.13 3.30
12:53 pm 12:53 Cloudy with Thunderstorms 39 3.9 37 2.8 93 93 N 14 22 29.84 1010 3 4 0.14 3.56
1:53 pm 13:53 Windy with Storms Likely 38 3.3 36 2.2 92 92 N 20 31 29.78 1009 4 6 0.07 1.78
2:53 pm 14:53 Windy with Storms Likely 38 3.3 36 2.2 92 92 NNW 22 35 29.80 1009 7 11 0.06 1.52
3:53 pm 15:53 Cloudy with Rain 38 3.3 36 2.2 92 92 N 21 33 29.76 1008 4 6 0.23 5.84
4:53 pm 16:53 Cloudy with Light Rain 39 3.9 36 2.2 89 89 N 23 37 29.74 1007 8 13 0.03 0.76
5:30 pm 17:30 Cloudy with Mist and Fog 39 3.9 37 2.8 93 93 NNE 20 31 29.78 1009 6 10 0.01 0.13
5:53 pm 17:53 Cloudy 39 3.9 36 2.2 89 89 N 22 35 29.75 1008 10 16 0.01 0.13
6:53 pm 18:53 Cloudy with Rain 39 3.9 37 2.8 93 93 N 14 22 29.76 1008 4 6 0.08 2.03
7:53 pm 19:53 Cloudy with Light Rain 39 3.9 37 2.8 93 93 N 10 17 29.78 1008 10 16 0.05 1.27
8:16 pm 20:16 Cloudy with Light Rain 39 3.9 37 2.8 93 93 NW 16 26 29.82 1010 5 8 0.01 0.25
8:53 pm 20:53 Cloudy with Rain 39 3.9 37 2.8 93 93 NNW 14 22 29.79 1009 5 8 0.04 1.02
9:05 pm 21:05 Cloudy with Rain 39 3.9 37 2.8 93 93 W 9 15 29.84 1011 3 4 0.04 1.02
9:22 pm 21:22 Cloudy with Light Rain 39 3.9 37 2.8 93 93 NW 10 17 29.80 1009 4 6 0.14 3.56
9:53 pm 21:53 Cloudy with Light Rain 39 3.9 37 2.8 93 93 NNW 15 24 29.75 1008 6 10 0.19 4.83
10:53 pm 22:53 Cloudy with Light Rain 39 3.9 37 2.8 93 93 NNW 13 20 29.76 1008 10 16 0.01 0.13
11:53 pm 23:53 Cloudy with Light Rain 39 3.9 37 2.8 93 93 WNW 15 24 29.78 1009 5 8 0.06 1.52

Powered by AerisWeather